AirNav   Jet Aviation Boston
 
 989 users online  

1D2 Canton-Plymouth-Mettetal Airport
Plymouth, Michigan, USA

GOING TO PLYMOUTH?


FAA INFORMATION EFFECTIVE 24 MAY 2018

Location

FAA Identifier: 1D2
Lat/Long: 42-20-52.1000N / 083-27-22.8000W
42-20.868333N / 083-27.380000W
42.3478056 / -83.4563333
(estimated)
Elevation: 696.1 ft. / 212.2 m (surveyed)
Variation: 05W (1980)
From city: 2 miles S of PLYMOUTH, MI
Time zone: UTC -4 (UTC -5 during Standard Time)
Zip code: 48187

Airport Operations

Airport use: Open to the public
Activation date: 03/1942
Control tower: no
ARTCC: CLEVELAND CENTER
FSS: LANSING FLIGHT SERVICE STATION
NOTAMs facility: LAN (NOTAM-D service available)
Attendance: SAT-SUN ON CALL, ALL MON-FRI 0700-1600
Wind indicator: lighted
Segmented circle: yes
Lights: ACTVT MIRL RY 18/36, PAPI RY 36 - CTAF
Beacon: white-green (lighted land airport)
Operates sunset to sunrise.

Airport Communications

CTAF/UNICOM: 122.7
DETROIT APPROACH: 118.95
DETROIT DEPARTURE: 118.95
WX ASOS at YIP (7 nm SW): 132.35 (734-485-9056)
WX ASOS at DTW (9 nm SE): PHONE 734-955-5015
WX ASOS at ARB (15 nm SW): PHONE 734-668-7173
WX AWOS-3 at VLL (17 nm NE): 119.475 (248-288-4649)
WX ASOS at PTK (19 nm N): 125.025 (248-886-8551)
WX AWOS-3 at ONZ (20 nm SE): 119.675 (734-692-9686)

Nearby radio navigation aids

VOR radial/distance  VOR name  Freq  Var
SVMr124/7.1SALEM VORTAC114.3003W
DXOr340/9.0DETROIT VOR/DME113.4006W
CRLr003/18.0CARLETON VOR/DME115.7003W
PSIr174/21.5PONTIAC VORTAC111.0003W
YQGr288/28.5WINDSOR VOR/DME113.8006W
FNTr167/39.3FLINT VORTAC116.9006W

 
NDB name  Hdg/Dist  Freq  Var  ID
GROSSE ILE325/20.041907WRYS .-. -.-- ...
TECUMSEH051/26.823906WTCU - -.-. ..-
ADRIAN050/39.827806WADG .- -.. --.

Airport Services

Fuel available: 100LL
24 HR SELF SERVE
Parking: hangars and tiedowns
Airframe service: NONE
Powerplant service: NONE
Bottled oxygen: NONE
Bulk oxygen: NONE

Runway Information

Runway 18/36

Dimensions: 2302 x 75 ft. / 702 x 23 m
Surface: asphalt/grooved, in fair condition
Weight bearing capacity: 
Single wheel: 12.5
Runway edge lights: medium intensity
RUNWAY 18  RUNWAY 36
Latitude: 42-21.057013N42-20.678285N
Longitude: 083-27.389617W083-27.369427W
Elevation: 696.0 ft.685.4 ft.
Gradient: 0.5% UP
Traffic pattern: leftleft
Runway heading: 182 magnetic, 177 true002 magnetic, 357 true
Markings: basic, in good conditionbasic, in good condition
Visual slope indicator: 2-light PAPI on left (4.00 degrees glide path)4-light PAPI on right (3.00 degrees glide path)
Runway end identifier lights: no
Touchdown point: yes, no lightsyes, no lights
Obstructions: 15 ft. road, 312 ft. from runway, 7:1 slope to clear
APCH RATIO 20:1 FM THLD
73 ft. trees, 1667 ft. from runway, 245 ft. left of centerline, 20:1 slope to clear

Airport Ownership and Management from official FAA records

Ownership: Publicly-owned
Owner: STATE OF MICHIGAN - MDOT
2700 EAST AIRPORT SERVICE DR
LANSING, MI 48906
Phone 517-335-8521
Manager: JIM MORENCY
8550 NORTH LILLEY RD
CANTON, MI 48187
Phone 734-459-0012

Airport Operational Statistics

Aircraft based on the field: 86
Single engine airplanes: 78
Multi engine airplanes: 3
Helicopters: 4
Ultralights: 1
    
Aircraft operations: avg 38/day *
71% local general aviation
29% transient general aviation
* for 12-month period ending 31 December 2016

Additional Remarks

NOISE SENSITIVE AREAS NORTH & SOUTH OF ARPT. CTC AMGR 734-459-0012 FOR NOISE ABATEMENT PROCEDURES.
DEER AND BIRDS ON & INVOF ARPT.
FOR CD CTC DETROIT APCH AT 800-499-8181.

Instrument Procedures

NOTE: All procedures below are presented as PDF files. If you need a reader for these files, you should download the free Adobe Reader.

NOT FOR NAVIGATION. Please procure official charts for flight.
FAA instrument procedures published for use from 24 May 2018 at 0901Z to 21 June 2018 at 0900Z.

 
STARs - Standard Terminal Arrivals
CRUXX SIX **CHANGED**   download (250KB)
GOHMA THREE **CHANGED**   download (175KB)
LLEEO TWO **CHANGED**   download (321KB)
SPRTN THREE **CHANGED**   download (158KB)
 
IAPs - Instrument Approach Procedures
RNAV (GPS)-B **CHANGED**   download (162KB)
VOR-A **CHANGED**   download (145KB)
NOTE: Special Take-Off Minimums/Departure Procedures apply   download (122KB)

Other nearby airports with instrument procedures:

KYIP - Willow Run Airport (7 nm SW)
KDTW - Detroit Metropolitan Wayne County Airport (9 nm SE)
Y47 - Oakland Southwest Airport (12 nm NW)
KARB - Ann Arbor Municipal Airport (15 nm SW)
KVLL - Oakland/Troy Airport (17 nm NE)
KPTK - Oakland County International Airport (19 nm N)
KONZ - Grosse Ile Municipal Airport (20 nm SE)
 
Loc | Ops | Rwys | IFR | FBO | Links
Com | Nav | Svcs | Stats | Notes

AirNav Hotels Sweepstakes
 
Area around 1D2 (Canton-Plymouth-Mettetal Airport)
 
Road maps at: MapQuest Bing Google
 
Aerial photo
WARNING: Photo may not be current or correct
Aerial photo of 1D2 (Canton-Plymouth-Mettetal Airport)
Photo by Mike Mee
Taken in the Summer of 2017
looking south.

Do you have a better or more recent aerial photo of Canton-Plymouth-Mettetal Airport that you would like to share? If so, please send us your photo.

 
Sectional chart

 
Airport distance calculator
Flying to Canton-Plymouth-Mettetal Airport? Find the distance to fly.

From to 1D2

Sunrise and sunset
Times for 18-Jun-2018
 Local
(UTC-4)
 Zulu
(UTC)
Morning civil twilight05:2309:23
Sunrise05:5809:58
Sunset21:1201:12
Evening civil twilight21:4701:47

Current date and time
Zulu (UTC)  19-Jun-2018 01:41:50
Local (UTC-4)  18-Jun-2018 21:41:50
 
METAR
KYIP 
8nm SW 
190053Z 35007KT 10SM CLR 31/22 A2988 RMK AO2 LTG DSNT E AND SW SLP107 T03110222
KDTW 
9nm SE 
190053Z 34007KT 9SM SCT060 BKN220 31/22 A2987 RMK AO2 LTG DSNT SE SLP107 CB DSNT SE AND SW MOV E T03110217
KARB 
15nm SW 
734-668-7173
190053Z AUTO 32006KT 10SM FEW065 30/22 A2987 RMK AO2 LTG DSNT SW SLP108 T03000217
KVLL 
17nm NE 
190115Z AUTO 35003KT 10SM BKN120 27/23 A2991 RMK AO2 T02700227
KPTK 
19nm N 
190053Z 35008KT 10SM SCT045 OVC140 26/23 A2989 RMK AO2 SLP111 T02610233
KDET 
20nm E 
190053Z 01007KT 10SM CLR 29/22 A2987 RMK AO2 LTG DSNT S SLP109 T02940222
TAF
KYIP 
8nm SW 
182039Z 1821/1918 26013G23KT P6SM SCT050 BKN200 TEMPO 1900/1902 3SM TSRA BKN025CB OVC100 FM190200 31008KT 6SM SHRA SCT025 BKN050 OVC080 FM190400 34006KT P6SM SCT025 OVC050 FM190800 03005KT 6SM HZ OVC025 FM191300 06007KT P6SM SCT035 BKN150
KDTW 
9nm SE 
182037Z 1821/1924 26013G23KT P6SM SCT050 BKN200 TEMPO 1900/1902 3SM TSRA BKN025CB OVC100 FM190200 31008KT 6SM SHRA SCT025 BKN050 OVC080 FM190400 34006KT P6SM SCT025 OVC050 FM190800 03005KT 6SM HZ OVC025 FM191300 06007KT P6SM SCT035 BKN150
KPTK 
19nm N 
181720Z 1818/1918 25014G24KT P6SM SCT040 BKN200 TEMPO 1822/1901 5SM TSRA BKN040CB OVC100 FM190100 31008KT P6SM BKN050 OVC080 FM190300 34006KT P6SM SCT020 OVC040 FM190700 03005KT P6SM OVC020 FM191300 06007KT P6SM SCT030 BKN150
KDET 
20nm E 
181720Z 1818/1918 25014G24KT P6SM VCSH BKN045 BKN200 FM182100 26012G21KT P6SM SCT050 BKN200 TEMPO 1823/1902 5SM TSRA BKN040CB OVC100 FM190200 31008KT P6SM BKN050 OVC080 FM190400 34006KT P6SM SCT025 OVC050 FM190800 03005KT 6SM HZ OVC025 FM191300 06007KT P6SM SCT035 BKN150
NOTAMs
Click for the latest NOTAMs
NOTAMs are issued by the DoD/FAA and will open in a separate window not controlled by AirNav.

 

 
 

FBO, Fuel Providers, and Aircraft Ground Support

  
 Business Name 
 
 Contact 
 
 Services / Description 
 
Fuel Prices
 
Comments
  
MDOT - Office of Aeronautics 734-459-0012
no information available

If you are affiliated with MDOT - Office of Aeronautics and would like to show here your services, contact info, web link, logo, and more, click here
100LL
PS $4.60 
 Updated 21-May-2018
 
   3 read write
PS=Pump service
Update Fuel Prices
 

Would you like to see your business listed on this page?

 If your business provides an interesting product or service to pilots, flight crews, aircraft, or users of the Canton-Plymouth-Mettetal Airport, you should consider listing it here.  To start the listing process, click on the button below
 
Add a business
 

Other Pages about Canton-Plymouth-Mettetal Airport

Page from the Michigan Airport Directory (PDF)
 
Update a link
 
Copyright © AirNav, LLC. All rights reserved. Privacy Policy  Contact